[[{"header":{"parameterUnit":"m.s-1","parameterCategory":1,"la1":30.2991,"la2":30.254,"lo1":-89.0895,"lo2":-89.0444,"dy":0.0017,"dx":0.0017,"nx":28,"ny":28,"refTime":"2026-02-17T03:00:00:Z","depth":0,"parameterNumber":2,"parameterNumberName":"U-component_of_WINDS"},"data":[0,0,0,0,0,0,0,0,0,0,0,0,0,0,0,0,0,0,0,0,0,0,0,0,0,0,0,0,0,0,0,0,0,0,0,0,0,0,0,0,0,0,0,0,0,0,0,0,0,0,0,0,0,0,0,0,0,0,-3.6727,-3.6729,0,-3.6895,-3.6897,-3.6899,-3.6892,-3.6889,-3.6887,-3.6885,-3.7057,-3.7064,-3.7071,0,0,0,0,0,0,0,0,0,0,0,0,0,-3.6402,-3.6408,-3.6727,-3.6729,-3.6731,-3.6895,-3.6897,-3.6899,-3.6892,-3.6889,-3.6886,-3.6884,-3.7055,-3.7063,-3.7071,0,0,0,0,0,0,0,0,0,0,0,0,0,-3.6554,-3.641,-3.6726,-3.6747,-3.6751,-3.6894,-3.6897,-3.69,-3.6893,-3.6889,-3.6886,-3.6882,-3.7052,-3.7062,-3.7072,-3.7207,0,0,-3.7104,-3.7108,0,0,0,0,0,0,0,0,-3.6545,-3.6566,-3.6742,-3.6746,-3.675,-3.6869,-3.6846,-3.7003,-3.6894,-3.6839,-3.6885,-3.688,-3.6998,-3.7012,-3.7051,-3.7215,-3.7222,-3.7105,-3.7111,-3.7115,-3.7118,0,0,0,0,0,0,0,-3.6535,-3.6558,-3.6793,-3.6744,-3.675,-3.6749,-3.6766,-3.6876,-3.6936,-3.6843,-3.6843,-3.6863,-3.6999,-3.7042,-3.7055,-3.7225,-3.7104,-3.7113,-3.712,-3.7124,-3.7509,-3.7513,0,0,0,0,0,0,-3.6519,-3.655,-3.6788,-3.6798,-3.6637,-3.6758,-3.6777,-3.6834,-3.6935,-3.6947,-3.6866,-3.6862,-3.7026,-3.7043,-3.7061,-3.7226,-3.7115,-3.7125,-3.7131,-3.7505,-3.751,-3.7515,0,0,0,0,0,0,-3.6512,-3.6541,-3.6781,-3.6674,-3.6705,-3.6767,-3.6831,-3.6839,-3.6882,-3.6952,-3.6963,-3.6898,-3.7024,-3.7047,-3.7171,-3.7232,-3.7129,-3.7139,-3.7501,-3.7507,-3.7513,-3.7557,0,0,0,0,0,0,-3.6503,-3.6538,-3.6589,-3.6675,-3.671,-3.6887,-3.6835,-3.6845,-3.6899,-3.6896,-3.6985,-3.6996,-3.7023,-3.7156,-3.7181,-3.7244,-3.7147,-3.7495,-3.7503,-3.7511,-3.755,-3.7563,-3.7575,0,0,0,0,0,-3.6492,-3.6594,-3.6592,-3.662,-3.6775,-3.6891,-3.6911,-3.6939,-3.6904,-3.6957,-3.7002,-3.6994,-3.7222,-3.7169,-3.7197,-3.7264,-3.7492,-3.7501,-3.751,-3.7544,-3.7561,-3.7575,0,0,0,0,0,0,-3.6513,-3.6606,-3.6604,-3.6737,-3.6806,-3.6889,-3.6956,-3.6955,-3.7036,-3.7029,-3.7061,-3.7081,-3.7206,-3.7248,-3.7187,-3.7401,-3.7352,-3.7368,-3.7369,-3.7385,-3.7397,-3.7384,-3.7155,0,0,0,0,0,-3.6533,-3.6619,-3.6696,-3.6806,-3.6841,-3.6893,-3.6944,-3.696,-3.7033,-3.7062,-3.7116,-3.7188,-3.7276,-3.7333,-3.7417,-3.7557,-3.7577,-3.7617,-3.763,-3.764,-3.7652,-3.7731,-3.775,-3.7545,-3.7545,-3.7545,0,0,-3.6576,-3.6637,-3.6689,-3.6812,-3.6867,-3.6956,-3.6917,-3.7012,-3.7079,-3.7076,-3.7197,-3.724,-3.7322,-3.7455,-3.7516,-3.7493,-3.7714,-3.7652,-3.7659,-3.7666,-3.7742,-3.7762,-3.7779,-3.7552,-3.755,-3.7549,0,0,-3.6698,-3.6753,-3.6852,-3.6909,-3.6994,-3.7028,-3.7052,-3.7136,-3.7164,-3.7286,-3.7287,-3.7367,-3.7518,-3.7577,-3.7626,-3.7775,-3.7771,-3.7802,-3.7868,-3.7944,-3.796,-3.7974,-3.8028,-3.8047,-3.7815,-3.7815,-3.7815,0,-3.674,-3.6874,-3.6903,-3.6999,-3.7054,-3.7057,-3.7159,-3.7212,-3.732,-3.7359,-3.7332,-3.7523,-3.7578,-3.7725,-3.7762,-3.7802,-3.7831,-3.7791,-3.7955,-3.797,-3.7984,-3.8036,-3.8056,-3.7818,-3.7818,-3.7818,-3.7817,0,-3.6922,-3.7015,-3.7085,-3.7189,-3.7253,-3.7351,-3.7396,-3.7457,-3.7468,-3.7506,-3.7631,-3.7698,-3.7797,-3.7834,-3.7846,-3.7984,-3.7968,-3.7948,-3.79,-3.8006,-3.8055,-3.8075,-3.7823,-3.7822,-3.7821,-3.782,0,0,-3.7059,-3.7182,-3.7207,-3.7256,-3.7351,-3.7424,-3.7524,-3.7621,-3.7673,-3.7748,-3.7833,-3.7962,-3.7946,-3.8002,-3.8021,-3.8088,-3.8204,-3.8061,-3.8063,-3.8085,-3.8361,-3.8375,-3.8397,-3.8202,-3.8206,-3.8209,-3.8355,0,-3.7192,-3.7368,-3.7399,-3.7553,-3.7641,-3.7647,-3.7734,-3.7803,-3.7841,-3.7922,-3.7965,-3.8056,-3.8026,-3.8061,-3.8128,-3.8175,-3.8259,-3.8165,-3.8282,-3.8286,-3.826,-3.8423,-3.8437,-3.8571,-3.8374,-3.8377,-3.838,0,-3.7369,-3.745,-3.7614,-3.77,-3.7737,-3.7815,-3.7908,-3.7985,-3.8064,-3.8088,-3.8152,-3.8165,-3.827,-3.8218,-3.8364,-3.83,-3.835,-3.8381,-3.8387,-3.8398,-3.8338,-3.8438,-3.8615,-3.8635,-3.841,-3.8408,-3.8406,0,-3.7454,-3.7604,-3.7722,-3.7763,-3.7866,-3.7921,-3.7967,-3.8042,-3.81,-3.8182,-3.822,-3.8313,-3.8364,-3.8437,-3.8474,-3.8433,-3.8618,-3.8569,-3.8641,-3.8641,-3.8679,-3.8676,-3.8865,-3.8712,-3.8712,-3.8711,-3.8711,0,-3.7598,-3.7698,-3.7761,-3.7833,-3.7946,-3.7982,-3.8093,-3.8137,-3.8205,-3.8287,-3.8299,-3.8376,-3.8421,-3.8505,-3.8535,-3.8653,-3.8676,-3.8698,-3.8705,-3.8697,-3.8694,-3.8729,-3.8721,-3.8717,-3.8716,-3.8715,-3.8714,0,-3.771,-3.7757,-3.7885,-3.7974,-3.7998,-3.8078,-3.8154,-3.8225,-3.8265,-3.8368,-3.8395,-3.8457,-3.8557,-3.8603,-3.8725,-3.8746,-3.888,-3.888,-3.8853,-3.8855,-3.8925,-3.8918,-3.9143,-3.9175,-3.9001,-3.9002,-3.9004,0,-3.7799,-3.7876,-3.7973,-3.8029,-3.8076,-3.8166,-3.8226,-3.8265,-3.8326,-3.8424,-3.8484,-3.8585,-3.8666,-3.8826,-3.8883,-3.8978,-3.898,-3.9053,-3.8994,-3.8985,-3.8982,-3.8976,-3.8985,-3.9063,-3.9065,-3.9066,-3.9067,0,-3.7951,-3.7971,-3.8056,-3.815,-3.8221,-3.8297,-3.8371,-3.8417,-3.8468,-3.8537,-3.864,-3.8704,-3.8831,-3.8931,-3.903,-3.9078,-3.9082,-3.9086,-3.9107,-3.9099,-3.908,-3.9092,-3.8881,-3.908,-3.9078,-3.9078,-3.9077,-3.9076,-3.8054,-3.8124,-3.8204,-3.8299,-3.8359,-3.843,-3.8501,-3.8551,-3.8637,-3.8744,-3.8762,-3.8872,-3.8952,-3.9086,-3.9138,-3.9225,-3.9207,-3.9239,-3.9247,-3.9254,-3.9258,-3.9068,-3.9243,-3.9243,-3.9242,-3.9242,-3.9242,0,-3.8207,-3.8259,-3.8347,-3.8451,-3.8527,-3.8525,-3.8609,-3.8672,-3.8768,-3.8843,-3.8924,-3.9043,-3.9141,-3.9207,-3.9306,-3.9364,-3.9368,-3.9388,-3.9384,-3.9396,-3.9267,-3.9239,-3.9383,-3.9383,-3.9383,-3.9383,-3.9383,-3.9383,-3.8295,-3.8413,-3.8443,-3.8593,-3.8645,-3.8752,-3.88,-3.8866,-3.8926,-3.9058,-3.914,-3.9182,-3.9254,-3.936,-3.945,-3.9467,-3.9503,-3.9524,-3.954,-3.9419,-3.9404,-3.939,-3.9363,-3.9532,-3.9532,-3.9662,-3.9663,-3.9664]},{"header":{"parameterUnit":"m.s-1","parameterCategory":1,"la1":30.2991,"la2":30.254,"lo1":-89.0895,"lo2":-89.0444,"dy":0.0017,"dx":0.0017,"nx":28,"ny":28,"refTime":"2026-02-17T03:00:00:Z","depth":0,"parameterNumber":3,"parameterNumberName":"V-component_of_WINDS"},"data":[0,0,0,0,0,0,0,0,0,0,0,0,0,0,0,0,0,0,0,0,0,0,0,0,0,0,0,0,0,0,0,0,0,0,0,0,0,0,0,0,0,0,0,0,0,0,0,0,0,0,0,0,0,0,0,0,0,0,1.4747,1.4748,0,1.4856,1.4858,1.4859,1.4897,1.4897,1.4897,1.4896,1.5006,1.5009,1.5012,0,0,0,0,0,0,0,0,0,0,0,0,0,1.457,1.4573,1.4746,1.4748,1.4749,1.4856,1.4858,1.4859,1.4898,1.4897,1.4897,1.4896,1.5005,1.5009,1.5012,0,0,0,0,0,0,0,0,0,0,0,0,0,1.466,1.4574,1.4746,1.4781,1.4786,1.4856,1.4858,1.486,1.4898,1.4897,1.4896,1.4896,1.5003,1.5008,1.5013,1.5055,0,0,1.5028,1.503,0,0,0,0,0,0,0,0,1.4654,1.4666,1.4775,1.4779,1.4784,1.4863,1.4836,1.4925,1.4898,1.4855,1.4896,1.4896,1.4958,1.4967,1.4989,1.5061,1.5065,1.5029,1.5032,1.5034,1.5035,0,0,0,0,0,0,0,1.4648,1.4661,1.479,1.4776,1.4782,1.4792,1.4804,1.4853,1.4909,1.4859,1.4862,1.4874,1.4961,1.4984,1.4992,1.5067,1.5028,1.5033,1.5036,1.5038,1.5182,1.5182,0,0,0,0,0,0,1.4636,1.4656,1.4786,1.4793,1.4717,1.4795,1.4809,1.4838,1.4908,1.4918,1.4875,1.4876,1.4976,1.4986,1.4996,1.5052,1.5034,1.5038,1.5041,1.5181,1.5182,1.5183,0,0,0,0,0,0,1.4632,1.4648,1.4782,1.4726,1.4743,1.4799,1.4831,1.484,1.4864,1.492,1.493,1.4888,1.4976,1.4989,1.5041,1.5056,1.504,1.5045,1.518,1.5181,1.5182,1.5163,0,0,0,0,0,0,1.4627,1.4646,1.4662,1.4726,1.4746,1.4826,1.4832,1.4843,1.4872,1.4875,1.4936,1.4945,1.4976,1.5034,1.5046,1.5062,1.5049,1.5179,1.518,1.5182,1.5162,1.5163,1.5164,0,0,0,0,0,1.4621,1.4651,1.4663,1.4679,1.4768,1.4826,1.4838,1.4874,1.4873,1.4891,1.4928,1.4943,1.5052,1.5039,1.5053,1.5071,1.5178,1.518,1.5182,1.5162,1.5163,1.5164,0,0,0,0,0,0,1.4587,1.466,1.4674,1.4726,1.477,1.4833,1.4856,1.4874,1.4918,1.4918,1.496,1.4974,1.5023,1.5052,1.5036,1.5117,1.5116,1.5121,1.5096,1.5098,1.5098,1.509,1.5053,0,0,0,0,0,1.4585,1.4627,1.4689,1.4729,1.475,1.4799,1.4826,1.485,1.4897,1.4915,1.4956,1.5,1.5045,1.5073,1.5116,1.5167,1.5181,1.5187,1.5187,1.5188,1.5192,1.5222,1.5226,1.5189,1.5189,1.5189,0,0,1.4583,1.4628,1.4651,1.4723,1.476,1.4802,1.4814,1.4858,1.489,1.4921,1.4974,1.5006,1.5058,1.511,1.5135,1.5136,1.5205,1.519,1.519,1.5194,1.5225,1.5228,1.5231,1.519,1.519,1.519,0,0,1.46,1.4638,1.4677,1.4714,1.4771,1.4804,1.4813,1.4874,1.4897,1.495,1.4976,1.5014,1.5089,1.5126,1.5155,1.5189,1.5206,1.5202,1.5206,1.5236,1.5239,1.5242,1.5255,1.5259,1.5206,1.5206,1.5206,0,1.4589,1.4654,1.4694,1.4737,1.4769,1.4802,1.4842,1.4876,1.4943,1.4964,1.4964,1.5061,1.5098,1.5161,1.517,1.5191,1.5204,1.5195,1.5236,1.5239,1.5242,1.5255,1.526,1.5205,1.5205,1.5205,1.5205,0,1.4639,1.4684,1.4709,1.4775,1.481,1.4851,1.4897,1.4927,1.4949,1.4982,1.5037,1.5083,1.5138,1.5155,1.5176,1.5221,1.522,1.5227,1.5227,1.5244,1.5257,1.5263,1.5204,1.5204,1.5205,1.5205,0,0,1.4636,1.4726,1.4735,1.4766,1.4832,1.4868,1.4911,1.4967,1.4992,1.5038,1.5076,1.514,1.5149,1.5181,1.5207,1.5233,1.5259,1.5237,1.5239,1.5241,1.5313,1.5307,1.5313,1.5271,1.5272,1.5273,1.5309,0,1.4663,1.4743,1.4781,1.4844,1.4887,1.492,1.4958,1.5003,1.5035,1.5076,1.5112,1.5158,1.5164,1.5185,1.5212,1.525,1.5274,1.5248,1.5306,1.5308,1.5293,1.5319,1.5313,1.5345,1.5314,1.5315,1.5316,0,1.4703,1.4752,1.482,1.4883,1.4903,1.4936,1.4991,1.503,1.5082,1.5104,1.5142,1.5167,1.5215,1.5212,1.5278,1.526,1.5286,1.5309,1.5311,1.5318,1.5313,1.5327,1.5356,1.5361,1.5324,1.5324,1.5323,0,1.4696,1.4777,1.4829,1.4855,1.493,1.4953,1.4986,1.5037,1.5069,1.5117,1.5138,1.519,1.5219,1.5259,1.5298,1.5292,1.5361,1.5361,1.5381,1.538,1.5394,1.5392,1.5427,1.541,1.541,1.541,1.541,0,1.4721,1.4762,1.4827,1.4859,1.4906,1.495,1.4995,1.503,1.5076,1.5115,1.5147,1.5183,1.5232,1.5275,1.5306,1.5357,1.5369,1.5388,1.5396,1.5386,1.5384,1.5404,1.5403,1.5411,1.5411,1.5411,1.541,0,1.472,1.4766,1.4825,1.4892,1.491,1.4942,1.4999,1.5032,1.5067,1.5116,1.5131,1.5185,1.5237,1.5281,1.5348,1.5369,1.5423,1.5431,1.5405,1.541,1.5428,1.5426,1.5477,1.5487,1.5462,1.5462,1.5462,0,1.4733,1.4766,1.4838,1.4867,1.49,1.4946,1.498,1.5025,1.5058,1.5122,1.5146,1.5201,1.5247,1.5329,1.5374,1.5427,1.5437,1.5452,1.5445,1.5435,1.5439,1.5437,1.5441,1.5452,1.5452,1.5452,1.5452,0,1.4753,1.4775,1.4822,1.4878,1.4918,1.4964,1.501,1.5032,1.5086,1.5122,1.5177,1.5213,1.5284,1.5338,1.5396,1.5429,1.545,1.5454,1.5462,1.5452,1.5436,1.5446,1.5407,1.5453,1.5453,1.5453,1.5453,1.5453,1.476,1.4791,1.4848,1.49,1.4941,1.4984,1.5019,1.506,1.5106,1.5168,1.5192,1.5248,1.5302,1.5382,1.5415,1.546,1.5462,1.5473,1.5476,1.5478,1.5477,1.5429,1.547,1.547,1.547,1.5471,1.5471,0,1.4782,1.4821,1.4869,1.4934,1.4976,1.4994,1.5048,1.5081,1.513,1.5179,1.5225,1.5288,1.5342,1.5393,1.5449,1.5475,1.5486,1.5488,1.5486,1.5494,1.5471,1.5459,1.5478,1.5478,1.5478,1.5478,1.5478,1.5478,1.4798,1.4853,1.4882,1.4957,1.4996,1.5052,1.5081,1.5122,1.5161,1.5232,1.5277,1.531,1.536,1.5421,1.5471,1.5484,1.5504,1.5503,1.5519,1.5497,1.5495,1.5494,1.5483,1.5507,1.5507,1.5539,1.5539,1.554]}]]